Regional Weather Roundup
Issued by NWS

Home | Current Version | Previous Version | Graphics & Text | Print | Product List | Glossary On
Versions: 1 2 3 4 5 6 7 8 9 10 11 12 13 14 15 16 17 18 19 20 21 22 23 24 25 26 27 28 29 30 31 32 33 34 35 36 37 38 39 40 41 42 43 44 45 46 47 48 49 50
000
ASUS43 KDMX 061407
RWRIA

WEATHER ROUNDUP FOR IOWA
NATIONAL WEATHER SERVICE DES MOINES IA
900 AM CDT MON JUL 06 2015

NOTE: "FAIR" INDICATES FEW OR NO CLOUDS BELOW 12,000 FEET WITH NO
SIGNIFICANT WEATHER AND/OR OBSTRUCTIONS TO VISIBILITY.

* - THESE STATIONS ARE NOT NWS STATIONS...THUS NOT UNDER NWS
QUALITY CONTROL.  THEY ALSO DO NOT REPORT WEATHER SUCH
AS PRECIPITATION OR FOG.

IAZ001>003-012>014-020>022-031>034-043>046-061500-
   NORTHWEST IOWA

CITY           SKY/WX    TMP DP  RH WIND       PRES   REMARKS
CARROLL *      MOSUNNY   72  70  94 SE7       29.86F
CHEROKEE *     CLOUDY    72  72 100 SW3       29.84S
DENISON *      SUNNY     72  70  94 E5        29.84S
LE MARS *      PTSUNNY   73  70  88 SW7       29.86R
ORANGE CITY *  CLOUDY    70  68  94 W5        29.87R
SHELDON *      DRIZZLE   72  72 100 NW10      29.86R
SIOUX CITY     CLOUDY    72  69  90 SW3       29.84F
SPENCER        CLOUDY    72  68  87 W8        29.85R
STORM LAKE *   MOSUNNY   70  68  94 S6        29.87R
$$

IAZ055>058-069>071-079>083-090>094-061500-
   SOUTHWEST IOWA

CITY           SKY/WX    TMP DP  RH WIND       PRES   REMARKS
ATLANTIC *     DRIZZLE   73  73 100 CALM      29.87F
AUDUBON *      LGT RAIN  72  70  94 S5        29.89S
CLARINDA *     SUNNY     77  75  94 S7        29.89S
COUNCIL BLFS * CLOUDY    72  72 100 NE5       29.88R
CRESTON *      SUNNY     77  73  88 S7        29.90R
HARLAN  *      CLOUDY    72  72 100 CALM      29.91R
LAMONI         CLOUDY    75  71  87 S10       29.91R
RED OAK *      MOSUNNY   75  75 100 E3        29.86F
SHENANDOAH *   SUNNY     77  73  88 CALM      29.87S
$$

IAZ047>049-059>061-072>074-084-061500-
   CENTRAL IOWA

CITY           SKY/WX    TMP DP  RH WIND       PRES   REMARKS
AMES           LGT RAIN  71  69  93 SE3       29.86F
ANKENY *       CLOUDY    72  70  94 SE3       29.88R FOG
CHARITON *     PTSUNNY   73  70  88 SW7       29.91R
DES MOINES     CLOUDY    74  70  87 S6        29.88R
GRINNELL*      LGT RAIN  70  70 100 E5        29.91F
KNOXVILLE *    CLOUDY    73  70  88 E3        29.89F
MARSHALLTOWN   LGT RAIN  70  67  90 E7        29.86F
PELLA *        CLOUDY    72  72 100 CALM      29.91F FOG
PERRY *        LGT RAIN  73  72  94 CALM      29.87S
$$

IAZ004>006-015-016-023>025-035-036-061500-
   NORTH CENTRAL IOWA

CITY           SKY/WX    TMP DP  RH WIND       PRES   REMARKS
ALGONA *       DRIZZLE   70  68  94 S17G25    29.87R
CLARION *      SUNNY     68  66  94 SE16      29.87F
ESTHERVILLE    CLOUDY    71  69  93 W5        29.81S
FORT DODGE *   CLOUDY    70  66  88 E7        29.89F
MASON CITY     LGT RAIN  71  69  93 S8        29.92R
FOREST CITY *  RAIN      68  68 100 SE15      29.88R
IOWA FALLS *   LGT RAIN  68  66  94 SE10      29.88F
$$

IAZ007>011-017>019-026>030-037>042-050>054-066-061500-
   NORTHEAST IOWA

CITY           SKY/WX    TMP DP  RH WIND       PRES   REMARKS
CEDAR RAPIDS   TSTM      71  71 100 W14       29.93R VSB 1
CHARLES CITY * LGT RAIN  70  70 100 S10G16    29.90F
CLINTON *      CLOUDY    75  70  83 S13       29.95R
DECORAH *        N/A    N/A N/A N/A MISG        N/A
DUBUQUE        CLOUDY    73  69  87 SW12      29.91R FOG
MONTICELLO *   CLOUDY    75  73  94 SW10G16   29.92R
OELWEIN *        N/A     70  68  94 W9        29.94R
WATERLOO       HVY RAIN  68  67  96 S6        29.92F FOG
$$

IAZ064-065-067-068-078-061500-
   EAST CENTRAL IOWA

CITY           SKY/WX    TMP DP  RH WIND       PRES   REMARKS
DAVENPORT      CLOUDY    75  70  84 S12       29.92S
IOWA CITY      TSTM      73  70  90 W7        29.94R FOG
MT. PLEASANT * CLOUDY    75  70  83 S10       29.93S
MUSCATINE *    MOSUNNY   75  72  88 S7        29.92S
QUAD CITIES    CLOUDY    76  70  82 SW7       29.92R
$$

IAZ062-063-075>077-085>089-095>099-061500-
   SOUTHEAST IOWA

CITY           SKY/WX    TMP DP  RH WIND       PRES   REMARKS
BURLINGTON     CLOUDY    75  72  90 S10       29.94R
FAIRFIELD *    CLOUDY    73  68  83 S9G17     29.92R
FORT MADISON * MOSUNNY   73  72  94 S10       29.94F
KEOKUK *       SUNNY     75  72  88 S10       29.94R
OSKALOOSA *    HVY RAIN  72  70  94 NW8G17    29.92R VSB 1/2
CENTERVILLE *  SUNNY     73  70  88 S10       29.93S
OTTUMWA        CLOUDY    73  70  90 SW3       29.90R THUNDER
WASHINGTON *   CLOUDY    72  72 100 S6        29.93R
$$

ABBREVIATIONS USED IN REMARKS
   TC - TEMPERATURES IN CELSIUS
  WCI - WIND CHILL INDEX
   HX - HEAT INDEX
  VSB - VISIBILITY
$$



USA.gov is the U.S. government's official web portal to all federal, state and local government web resources and services.